Location: *
(48.8489°N, 2.3218°E)
Time: 10:34:00
(UTC+00:00)

USA 245 - Pass Details

Date: 23 August 2019
Orbit: 266 x 1000 km, 97.9° (Epoch: 16 September)

Event Time Altitude Azimuth Distance (km) Brightness Sun altitude
Exits shadow 20:38:21 25° 150° (SSE) 1,496 5.0 -16.1°
Maximum altitude 20:41:21 70° 72° (ENE) 869 4.1 -16.5°
Drops below altitude 10° 20:47:14 10° 350° (N) 2,624 7.5 -17.2°
Sets 20:49:52 0° 349° (NNW) 3,641 8.4 -17.6°
